Weather History for Greenville, TX

Change the Weather History Date:

Monday, July 22, 2013

  Actual Average Record
Temperature  
Mean Temperature 86 °F -  
Max Temperature 96 °F 93 °F 100 °F (1998)
Min Temperature 77 °F 75 °F 69 °F (2004)
Cooling Degree Days 22    
Growing Degree Days 36 (Base 50)    
Moisture  
Dew Point 68 °F    
Average Humidity 58    
Maximum Humidity 83    
Minimum Humidity 32    
Precipitation  
Precipitation 0.00 in - - ()
Sea Level Pressure  
Sea Level Pressure 29.94 in    
Wind  
Wind Speed 10 mph (South)    
Max Wind Speed 16 mph    
Max Gust Speed 24 mph    
Visibility 10 miles    
Events      
Averages and records for this station are not official NWS values.
T = Trace of Precipitation, MM = Missing Value Source: NWS Daily Summary

Daily Weather History Graph

Daily Weather History Graph

Search for Another Location

Airport:

Trip Planner

Search our weather history database for the weather conditions in past years. The results will help you decide how hot, cold, wet, or windy it might be!

Date:

Astronomy

Jul. 22, 2013 Rise Set
Actual Time 6:30 AM CDT 8:30 PM CDT
Civil Twilight 6:03 AM CDT 8:57 PM CDT
Nautical Twilight 5:29 AM CDT 9:31 PM CDT
Astronomical Twilight 4:53 AM CDT 10:07 PM CDT
Moon 8:22 PM CDT (7/22) 6:25 AM CDT (7/22)
Length of Visible Light 14h 54m
Length of Day
13h 59m
Full, 100% of the Moon is Illuminated
Jul 22
Full
Jul 22
Full
Jul 29
Last Quarter
Aug 6
New
Aug 14
First Quarter

Hourly Weather History & Observations

Time (CDT) Temp. Heat Index Dew Point Humidity Pressure Visibility Wind Dir Wind Speed Gust Speed Precip Events Conditions
12:15 AM 80.6 °F 83.9 °F 69.8 °F 70% 29.93 in 10.0 mi SSW 10.4 mph - N/A   Clear
12:35 AM 80.6 °F 83.9 °F 69.8 °F 70% 29.94 in 10.0 mi SSW 10.4 mph - N/A   Clear
12:55 AM 80.6 °F 83.9 °F 69.8 °F 70% 29.94 in 10.0 mi SSW 12.7 mph - N/A   Clear
1:15 AM 80.6 °F 83.9 °F 69.8 °F 70% 29.94 in 10.0 mi SSW 9.2 mph 12.7 mph N/A   Clear
1:35 AM 80.6 °F 83.9 °F 69.8 °F 70% 29.94 in 10.0 mi SSW 9.2 mph - N/A   Clear
1:55 AM 78.8 °F - 69.8 °F 74% 29.94 in 10.0 mi SSW 11.5 mph - N/A   Clear
2:15 AM 78.8 °F - 69.8 °F 74% 29.94 in 10.0 mi SSW 9.2 mph - N/A   Clear
2:35 AM 78.8 °F - 69.8 °F 74% 29.94 in 10.0 mi SSW 10.4 mph - N/A   Clear
2:55 AM 78.8 °F - 69.8 °F 74% 29.93 in 10.0 mi South 6.9 mph - N/A   Clear
3:15 AM 78.8 °F - 69.8 °F 74% 29.93 in 10.0 mi South 10.4 mph - N/A   Clear
3:35 AM 78.8 °F - 71.6 °F 78% 29.93 in 10.0 mi South 10.4 mph - N/A   Clear
3:55 AM 78.8 °F - 71.6 °F 78% 29.94 in 10.0 mi South 9.2 mph - N/A   Clear
4:15 AM 78.8 °F - 71.6 °F 78% 29.94 in 10.0 mi SSW 10.4 mph - N/A   Clear
4:35 AM 77.0 °F - 71.6 °F 83% 29.94 in 10.0 mi South 10.4 mph - N/A   Clear
4:55 AM 77.0 °F - 71.6 °F 83% 29.94 in 10.0 mi South 8.1 mph - N/A   Clear
5:15 AM 77.0 °F - 71.6 °F 83% 29.94 in 10.0 mi South 10.4 mph - N/A   Clear
5:35 AM 77.0 °F - 71.6 °F 83% 29.94 in 10.0 mi South 8.1 mph - N/A   Scattered Clouds
5:55 AM 77.0 °F - 71.6 °F 83% 29.95 in 10.0 mi South 6.9 mph - N/A   Mostly Cloudy
6:15 AM 77.0 °F - 71.6 °F 83% 29.95 in 10.0 mi South 5.8 mph - N/A   Overcast
6:35 AM 77.0 °F - 71.6 °F 83% 29.95 in 10.0 mi Calm Calm - N/A   Overcast
6:55 AM 77.0 °F - 71.6 °F 83% 29.95 in 10.0 mi South 5.8 mph - N/A   Mostly Cloudy
7:15 AM 77.0 °F - 71.6 °F 83% 29.96 in 10.0 mi SSW 9.2 mph - N/A   Scattered Clouds
7:35 AM 77.0 °F - 71.6 °F 83% 29.97 in 10.0 mi SSW 8.1 mph - N/A   Mostly Cloudy
7:55 AM 78.8 °F - 71.6 °F 78% 29.97 in 10.0 mi South 10.4 mph - N/A   Overcast
9:35 AM 82.4 °F 86.3 °F 69.8 °F 66% 29.99 in 10.0 mi SSW 16.1 mph - N/A   Overcast
9:55 AM 86.0 °F 90.4 °F 69.8 °F 58% 29.99 in 10.0 mi SSW 16.1 mph - N/A   Mostly Cloudy
10:15 AM 86.0 °F 90.4 °F 69.8 °F 58% 29.99 in 10.0 mi SW 15.0 mph 18.4 mph N/A   Mostly Cloudy
10:35 AM 87.8 °F 92.6 °F 69.8 °F 55% 29.99 in 10.0 mi SSW 13.8 mph 19.6 mph N/A   Scattered Clouds
10:55 AM 87.8 °F 92.6 °F 69.8 °F 55% 29.99 in 10.0 mi SSW 12.7 mph - N/A   Scattered Clouds
11:15 AM 89.6 °F 94.7 °F 69.8 °F 52% 29.99 in 10.0 mi SW 10.4 mph 18.4 mph N/A   Scattered Clouds
11:35 AM 89.6 °F 94.7 °F 69.8 °F 52% 29.99 in 10.0 mi SW 10.4 mph 18.4 mph N/A   Scattered Clouds
11:55 AM 89.6 °F 94.7 °F 69.8 °F 52% 29.98 in 10.0 mi SW 11.5 mph 17.3 mph N/A   Scattered Clouds
12:15 PM 91.4 °F 95.4 °F 68.0 °F 46% 29.98 in 10.0 mi SSW 12.7 mph 17.3 mph N/A   Clear
12:35 PM 91.4 °F 95.4 °F 68.0 °F 46% 29.97 in 10.0 mi SSW 10.4 mph - N/A   Clear
12:55 PM 93.2 °F 97.7 °F 68.0 °F 44% 29.97 in 10.0 mi SSW 11.5 mph 17.3 mph N/A   Clear
1:15 PM 95.0 °F 99.5 °F 68.0 °F 41% 29.97 in 10.0 mi SSW 10.4 mph 17.3 mph N/A   Scattered Clouds
1:35 PM 95.0 °F 99.5 °F 68.0 °F 41% 29.96 in 10.0 mi South 9.2 mph - N/A   Clear
1:55 PM 91.4 °F 94.0 °F 66.2 °F 43% 29.95 in 10.0 mi SSW 5.8 mph 10.4 mph N/A   Scattered Clouds
2:15 PM 95.0 °F 98.5 °F 66.2 °F 39% 29.95 in 10.0 mi SW 9.2 mph 24.2 mph N/A   Scattered Clouds
2:35 PM 95.0 °F 98.5 °F 66.2 °F 39% 29.94 in 10.0 mi SSW 12.7 mph 18.4 mph N/A   Scattered Clouds
2:55 PM 96.8 °F 99.0 °F 64.4 °F 34% 29.94 in 10.0 mi South 11.5 mph 16.1 mph N/A   Scattered Clouds
3:15 PM 96.8 °F 99.0 °F 64.4 °F 34% 29.93 in - SSW 11.5 mph 18.4 mph N/A   Scattered Clouds
3:35 PM 96.8 °F 98.0 °F 62.6 °F 32% 29.93 in - SSW 9.2 mph - N/A   Scattered Clouds
3:55 PM 95.0 °F 97.0 °F 64.4 °F 36% 29.92 in - SSW 16.1 mph 19.6 mph N/A   Mostly Cloudy
4:15 PM 96.8 °F 99.0 °F 64.4 °F 34% 29.91 in - South 11.5 mph 18.4 mph N/A   Mostly Cloudy
4:35 PM 95.0 °F 97.0 °F 64.4 °F 36% 29.91 in - South 9.2 mph - N/A   Mostly Cloudy
4:55 PM 95.0 °F 97.0 °F 64.4 °F 36% 29.91 in - South 10.4 mph - N/A   Scattered Clouds
5:15 PM 96.8 °F 99.0 °F 64.4 °F 34% 29.91 in - South 12.7 mph - N/A   Mostly Cloudy
5:35 PM 96.8 °F 99.0 °F 64.4 °F 34% 29.90 in - South 11.5 mph 16.1 mph N/A   Mostly Cloudy
5:55 PM 96.8 °F 99.0 °F 64.4 °F 34% 29.89 in - South 11.5 mph 20.7 mph N/A   Scattered Clouds
6:15 PM 96.8 °F 99.0 °F 64.4 °F 34% 29.89 in - South 13.8 mph - N/A   Mostly Cloudy
6:35 PM 95.0 °F 97.0 °F 64.4 °F 36% 29.88 in - SSE 9.2 mph - N/A   Scattered Clouds
6:55 PM 95.0 °F 96.0 °F 62.6 °F 34% 29.88 in - SSE 12.7 mph 16.1 mph N/A   Scattered Clouds
7:15 PM 95.0 °F 96.0 °F 62.6 °F 34% 29.88 in - South 12.7 mph 17.3 mph N/A   Clear
7:35 PM 93.2 °F 94.9 °F 64.4 °F 38% 29.88 in - South 11.5 mph - N/A   Clear
7:55 PM 91.4 °F 93.2 °F 64.4 °F 41% 29.88 in - South 10.4 mph - N/A   Clear
8:15 PM 89.6 °F 91.1 °F 64.4 °F 43% 29.88 in - SSE 6.9 mph - N/A   Clear
8:55 PM 87.8 °F 91.4 °F 68.0 °F 52% 29.89 in - SSE 6.9 mph - N/A   Clear
9:15 PM 86.0 °F 89.4 °F 68.0 °F 55% 29.89 in - SSE 5.8 mph - N/A   Clear
9:35 PM 84.2 °F 87.3 °F 68.0 °F 58% 29.90 in 10.0 mi SSE 3.5 mph - N/A   Clear
9:55 PM 84.2 °F 88.4 °F 69.8 °F 62% 29.91 in 10.0 mi Calm Calm - N/A   Clear
10:15 PM 82.4 °F 86.3 °F 69.8 °F 66% 29.92 in 10.0 mi Calm Calm - N/A   Clear
10:35 PM 82.4 °F 86.3 °F 69.8 °F 66% 29.92 in 10.0 mi South 5.8 mph - N/A   Clear
10:55 PM 82.4 °F 85.4 °F 68.0 °F 62% 29.92 in 10.0 mi South 3.5 mph - N/A   Clear
11:15 PM 84.2 °F 87.3 °F 68.0 °F 58% 29.92 in 10.0 mi South 6.9 mph - N/A   Clear
11:35 PM 82.4 °F 86.3 °F 69.8 °F 66% 29.93 in 10.0 mi South 4.6 mph - N/A   Clear
11:55 PM 82.4 °F 86.3 °F 69.8 °F 66% 29.94 in 10.0 mi Calm Calm - N/A   Clear